User: anonymous
Location: Vancouver
(49.2500°N, 123.1330°W)
Time: 00:19:18
(UTC-07:00)
Language:

Cosmos 1340 Rocket - Orbit

View from above orbital plane
View from above orbital plane
View from above satellite
View from above satellite

Ground track
Ground track

The orbit data is extracted from the following two-line orbital elements,

1 13068U 82013B   14201.80774229  .00000896  00000-0  62498-4 0  4541
2 13068 081.2053 353.5944 0022531 217.0548 142.9120 15.04245242763590
Epoch (UTC): 20 July 2014 19:23:08
Eccentricity: 0.0022531
inclination: 81.2053°
perigee height: 538 km
apogee height: 569 km
right ascension of ascending node: 353.5944°
argument of perigee: 217.0548°
revolutions per day: 15.04245242
mean anomaly at epoch: 142.9120°
orbit number at epoch: 76359

The dashed part of the orbit path shows where the satellite is in the earth's shadow,  

DLR